GW1281 Weather Reports


Display with metric or nautical units.
time (UTC)temp
F
wind
direction
speed
MPH
gust
MPH
rain 1hr
in
rain 24hr
in
rain mn
in
humidity
%
barometer
mb
20260505102017 60 0 0.0 3.0 0.00 0.00 0.00 67 1011.0
20260505101536 60 0 0.0 3.0 0.00 0.00 0.00 66 1010.9
20260505101019 60 0 0.0 3.0 0.00 0.00 0.00 66 1010.8
20260505100519 61 77 0.0 3.0 0.00 0.00 0.00 66 1010.7
20260505100036 61 73 0.0 3.0 0.00 0.00 0.00 66 1010.6
20260505095518 61 315 0.0 2.0 0.00 0.00 0.00 65 1010.7
20260505095018 61 0 0.0 4.0 0.00 0.00 0.00 65 1010.6
20260505094535 61 311 0.0 4.0 0.00 0.00 0.00 65 1010.5
20260505094017 61 300 1.0 3.0 0.00 0.00 0.00 65 1010.6
20260505093518 61 0 0.0 4.0 0.00 0.00 0.00 65 1010.5
20260505093043 61 185 0.0 4.0 0.00 0.00 0.00 65 1010.4
20260505092522 61 64 1.0 10.0 0.00 0.00 0.00 65 1010.4
20260505092018 61 319 4.0 10.0 0.00 0.00 0.00 65 1010.4
20260505091540 61 198 2.0 10.0 0.00 0.00 0.00 65 1010.4
20260505091018 61 223 3.0 10.0 0.00 0.00 0.00 65 1010.4
20260505090517 61 194 3.0 10.0 0.00 0.00 0.00 66 1010.3
20260505090033 61 225 1.0 6.0 0.00 0.00 0.00 66 1010.3
20260505085518 61 276 2.0 6.0 0.00 0.00 0.00 66 1010.2
20260505085017 61 0 0.0 6.0 0.00 0.00 0.00 66 1010.1
20260505084544 60 189 1.0 5.0 0.00 0.00 0.00 66 1010.2
20260505084017 60 211 1.0 4.0 0.00 0.00 0.00 66 1010.3
20260505083517 60 277 1.0 3.0 0.00 0.00 0.00 66 1010.4
20260505083044 60 266 1.0 3.0 0.00 0.00 0.00 66 1010.5
20260505082517 60 315 1.0 2.0 0.00 0.00 0.00 66 1010.5
20260505082018 61 0 0.0 3.0 0.00 0.00 0.00 66 1010.6
20260505081548 61 301 0.0 4.0 0.00 0.00 0.00 66 1010.4
20260505081019 61 0 1.0 4.0 0.00 0.00 0.00 66 1010.4
20260505080518 60 229 1.0 8.0 0.00 0.00 0.00 66 1010.3
20260505080034 60 0 2.0 8.0 0.00 0.00 0.00 66 1010.4
20260505075517 61 110 0.0 3.0 0.00 0.00 0.00 65 1010.4
20260505075017 61 0 0.0 3.0 0.00 0.00 0.00 65 1010.4
20260505074534 61 0 1.0 3.0 0.00 0.00 0.00 65 1010.4
20260505074017 61 95 0.0 3.0 0.00 0.00 0.00 65 1010.5
20260505073517 61 0 0.0 5.0 0.00 0.00 0.00 64 1010.6
20260505073041 61 188 1.0 5.0 0.00 0.00 0.00 64 1010.6
20260505072517 61 153 2.0 5.0 0.00 0.00 0.00 64 1010.6
20260505072021 61 212 2.0 4.0 0.00 0.00 0.00 64 1010.6
20260505071539 61 221 1.0 7.0 0.00 0.00 0.00 64 1010.6
20260505071018 61 202 2.0 7.0 0.00 0.00 0.00 64 1010.5
20260505070522 61 187 1.0 3.0 0.00 0.00 0.00 64 1010.6
20260505070043 61 0 1.0 3.0 0.00 0.00 0.00 64 1010.4
20260505065518 61 0 1.0 4.0 0.00 0.00 0.00 64 1010.5
20260505065018 61 242 1.0 4.0 0.00 0.00 0.00 64 1010.5
20260505064535 61 0 0.0 4.0 0.00 0.00 0.00 64 1010.5
20260505064018 61 304 1.0 9.0 0.00 0.00 0.00 64 1010.6
20260505063518 61 35 1.0 9.0 0.00 0.00 0.00 64 1010.5
20260505063037 61 328 1.0 12.0 0.00 0.00 0.00 64 1010.5
20260505062518 61 208 4.0 12.0 0.00 0.00 0.00 63 1010.5
20260505062017 61 13 1.0 9.0 0.00 0.00 0.00 63 1010.4
20260505061539 61 217 2.0 9.0 0.00 0.00 0.00 63 1010.4
20260505061019 61 257 2.0 10.0 0.00 0.00 0.00 62 1010.4
20260505060519 61 200 3.0 10.0 0.00 0.00 0.00 62 1010.5
20260505060040 61 207 2.0 12.0 0.00 0.00 0.00 61 1010.5
20260505055519 61 0 4.0 12.0 0.00 0.00 0.00 61 1010.4
20260505055019 61 202 4.0 12.0 0.00 0.00 0.00 61 1010.4
20260505054536 61 214 5.0 12.0 0.00 0.00 0.00 61 1010.3
20260505054019 61 205 5.0 12.0 0.00 0.00 0.00 61 1010.4
20260505053518 61 242 5.0 11.0 0.00 0.00 0.00 60 1010.5
20260505053059 61 234 5.0 11.0 0.00 0.00 0.00 60 1010.4
20260505052517 61 168 5.0 11.0 0.00 0.00 0.00 59 1010.4
20260505052018 61 193 3.0 12.0 0.00 0.00 0.00 59 1010.5
20260505051541 62 158 5.0 13.0 0.00 0.00 0.00 58 1010.5
20260505051019 62 198 4.0 13.0 0.00 0.00 0.00 58 1010.5
20260505050517 62 208 6.0 12.0 0.00 0.00 0.00 58 1010.6
20260505041542 62 198 6.0 15.0 0.00 0.00 0.00 52 1010.6
20260505041017 63 186 5.0 15.0 0.00 0.00 0.00 52 1010.5
20260505040517 63 181 6.0 15.0 0.00 0.00 0.00 51 1010.4
20260505040038 63 190 5.0 13.0 0.00 0.00 0.00 50 1010.3
20260505035517 63 192 5.0 12.0 0.00 0.00 0.00 49 1010.3
20260505035018 63 192 6.0 12.0 0.00 0.00 0.00 49 1010.4
20260505034549 63 200 5.0 11.0 0.00 0.00 0.00 48 1010.4
20260505034018 64 210 5.0 11.0 0.00 0.00 0.00 47 1010.4
20260505033523 64 201 6.0 12.0 0.00 0.00 0.00 47 1010.3
20260505033046 64 205 6.0 12.0 0.00 0.00 0.00 47 1010.4
20260505032518 64 169 4.0 10.0 0.00 0.00 0.00 46 1010.5
20260505032016 64 144 5.0 13.0 0.00 0.00 0.00 46 1010.5
20260505031535 64 145 5.0 13.0 0.00 0.00 0.00 46 1010.6
20260505031019 64 226 5.0 12.0 0.00 0.00 0.00 45 1010.6
20260505030518 65 169 6.0 12.0 0.00 0.00 0.00 45 1010.7
20260505030035 65 202 4.0 11.0 0.00 0.00 0.00 45 1010.6
20260505025520 65 161 5.0 13.0 0.00 0.00 0.00 45 1010.5
20260505025018 65 196 5.0 13.0 0.00 0.00 0.00 45 1010.6
20260505024533 65 208 5.0 11.0 0.00 0.00 0.00 45 1010.6
20260505024021 65 165 5.0 10.0 0.00 0.00 0.00 45 1010.8
20260505023517 65 234 5.0 10.0 0.00 0.00 0.00 45 1010.7
20260505023035 65 225 6.0 13.0 0.00 0.00 0.00 45 1010.7
20260505022520 65 211 5.0 14.0 0.00 0.00 0.00 45 1010.7
20260505022020 65 223 6.0 14.0 0.00 0.00 0.00 45 1010.8
20260505021539 65 205 4.0 8.0 0.00 0.00 0.00 45 1010.7
20260505021022 66 167 4.0 9.0 0.00 0.00 0.00 44 1010.8
20260505020521 66 227 5.0 10.0 0.00 0.00 0.00 44 1010.8
20260505020036 66 241 4.0 10.0 0.00 0.00 0.00 44 1010.7
20260505015521 66 219 3.0 7.0 0.00 0.00 0.00 44 1010.6
20260505015022 66 209 3.0 9.0 0.00 0.00 0.00 44 1010.6
20260505014536 66 175 3.0 9.0 0.00 0.00 0.00 43 1010.6
20260505014020 66 188 4.0 8.0 0.00 0.00 0.00 43 1010.6
20260505013523 67 180 3.0 8.0 0.00 0.00 0.00 43 1010.6
20260505013041 67 173 3.0 8.0 0.00 0.00 0.00 42 1010.6
20260505012520 67 203 2.0 10.0 0.00 0.00 0.00 42 1010.6
20260505012021 67 201 3.0 10.0 0.00 0.00 0.00 42 1010.7
20260505011602 67 211 4.0 10.0 0.00 0.00 0.00 42 1010.6
20260505011019 67 245 4.0 8.0 0.00 0.00 0.00 42 1010.5
20260505010522 67 225 3.0 8.0 0.00 0.00 0.00 41 1010.5
20260505010043 67 193 2.0 8.0 0.00 0.00 0.00 41 1010.4
20260505005521 67 201 3.0 8.0 0.00 0.00 0.00 41 1010.4
20260505005021 67 208 2.0 8.0 0.00 0.00 0.00 41 1010.3
20260505004536 68 0 3.0 8.0 0.00 0.00 0.00 40 1010.3
20260505004021 68 219 3.0 8.0 0.00 0.00 0.00 40 1010.2
20260505003520 68 192 3.0 6.0 0.00 0.00 0.00 39 1010.1
20260505003034 68 207 2.0 6.0 0.00 0.00 0.00 39 1010.1
20260505002524 68 223 2.0 6.0 0.00 0.00 0.00 39 1010.0
20260505002021 68 197 2.0 5.0 0.00 0.00 0.00 38 1010.0
20260505001543 69 170 0.0 5.0 0.00 0.00 0.00 38 1009.9
20260505001017 69 192 1.0 5.0 0.00 0.00 0.00 37 1009.9
20260505000520 69 210 2.0 5.0 0.00 0.00 0.00 37 1009.9
20260505000058 70 0 1.0 5.0 0.00 0.00 0.00 37 1009.8
20260504235521 70 196 3.0 5.0 0.00 0.00 0.00 36 1009.8
20260504235022 70 236 2.0 7.0 0.00 0.00 0.00 36 1009.9
20260504234540 70 173 3.0 7.0 0.00 0.00 0.00 35 1009.8
20260504234021 70 211 3.0 9.0 0.00 0.00 0.00 35 1009.8
20260504233524 71 199 4.0 9.0 0.00 0.00 0.00 34 1009.8
20260504233054 71 223 6.0 9.0 0.00 0.00 0.00 34 1009.8
20260504232521 71 213 5.0 9.0 0.00 0.00 0.00 34 1009.8
20260504232036 71 219 4.0 11.0 0.00 0.00 0.00 34 1009.8
20260504231536 71 217 4.0 13.0 0.00 0.00 0.00 34 1009.8
20260504231021 71 224 6.0 13.0 0.00 0.00 0.00 34 1009.8
20260504230521 71 179 5.0 10.0 0.00 0.00 0.00 34 1009.8
20260504230100 71 234 6.0 14.0 0.00 0.00 0.00 33 1009.7
20260504225519 72 217 7.0 14.0 0.00 0.00 0.00 33 1009.7
20260504225019 72 221 3.0 12.0 0.00 0.00 0.00 33 1009.7
20260504224538 72 164 3.0 12.0 0.00 0.00 0.00 33 1009.7
20260504224018 72 234 6.0 11.0 0.00 0.00 0.00 33 1009.7
20260504223518 72 213 5.0 15.0 0.00 0.00 0.00 33 1009.7
20260504223034 72 194 6.0 15.0 0.00 0.00 0.00 32 1009.9
20260504222518 72 202 4.0 11.0 0.00 0.00 0.00 32 1009.8
20260504222021 73 224 5.0 12.0 0.00 0.00 0.00 32 1009.8
20260504221539 73 185 5.0 12.0 0.00 0.00 0.00 32 1009.8
20260504221018 73 241 6.0 10.0 0.00 0.00 0.00 32 1009.8
20260504220518 73 203 4.0 9.0 0.00 0.00 0.00 32 1009.8
20260504220036 73 264 3.0 14.0 0.00 0.00 0.00 32 1009.9
20260504215518 73 228 6.0 14.0 0.00 0.00 0.00 32 1010.0
20260504215018 73 178 2.0 10.0 0.00 0.00 0.00 32 1010.0
20260504214534 72 213 4.0 12.0 0.00 0.00 0.00 32 1010.0
20260504214018 73 175 5.0 12.0 0.00 0.00 0.00 33 1010.0
20260504213517 73 231 4.0 12.0 0.00 0.00 0.00 33 1010.0
20260504213037 73 177 4.0 12.0 0.00 0.00 0.00 33 1010.0
20260504212518 73 200 6.0 12.0 0.00 0.00 0.00 32 1010.1
20260504212018 73 207 3.0 11.0 0.00 0.00 0.00 32 1010.1
20260504211533 73 344 4.0 18.0 0.00 0.00 0.00 33 1010.1
20260504211017 73 249 2.0 18.0 0.00 0.00 0.00 33 1010.1
20260504210517 73 318 7.0 15.0 0.00 0.00 0.00 32 1010.2
20260504210040 73 308 4.0 13.0 0.00 0.00 0.00 33 1010.1
20260504205517 73 191 5.0 18.0 0.00 0.00 0.00 32 1010.1
20260504205017 73 182 4.0 18.0 0.00 0.00 0.00 33 1010.1
20260504204535 73 299 4.0 15.0 0.00 0.00 0.00 32 1010.0
20260504204018 73 191 7.0 15.0 0.00 0.00 0.00 31 1010.0
20260504203518 73 212 8.0 14.0 0.00 0.00 0.00 30 1010.2
20260504203036 73 322 2.0 12.0 0.00 0.00 0.00 33 1010.2
20260504202518 73 301 2.0 15.0 0.00 0.00 0.00 33 1010.2
20260504202018 73 195 5.0 15.0 0.00 0.00 0.00 32 1010.3
20260504201534 73 180 7.0 13.0 0.00 0.00 0.00 31 1010.3
20260504201017 73 184 3.0 9.0 0.00 0.00 0.00 32 1010.2
20260504200517 73 201 3.0 16.0 0.00 0.00 0.00 32 1010.3
20260504200035 73 202 7.0 16.0 0.00 0.00 0.00 31 1010.2
20260504195517 73 223 5.0 12.0 0.00 0.00 0.00 30 1010.3
20260504195018 74 290 3.0 11.0 0.00 0.00 0.00 32 1010.3
20260504194540 73 259 4.0 10.0 0.00 0.00 0.00 31 1010.4
20260504194018 73 309 2.0 13.0 0.00 0.00 0.00 33 1010.4
20260504193516 73 205 4.0 13.0 0.00 0.00 0.00 32 1010.4
20260504193036 73 219 4.0 11.0 0.00 0.00 0.00 32 1010.4
20260504192518 72 246 4.0 12.0 0.00 0.00 0.00 32 1010.4
20260504192020 72 198 4.0 13.0 0.00 0.00 0.00 31 1010.6
20260504191535 72 205 7.0 13.0 0.00 0.00 0.00 31 1010.6
20260504191019 72 259 4.0 15.0 0.00 0.00 0.00 33 1010.6
20260504190518 72 265 5.0 15.0 0.00 0.00 0.00 31 1010.7
20260504190037 72 202 6.0 15.0 0.00 0.00 0.00 32 1011.1
20260504185517 72 247 6.0 15.0 0.00 0.00 0.00 32 1010.9
20260504185018 72 167 4.0 12.0 0.00 0.00 0.00 33 1010.9
20260504184534 71 202 5.0 15.0 0.00 0.00 0.00 33 1011.2
20260504184019 71 335 8.0 15.0 0.00 0.00 0.00 32 1011.2
20260504183519 72 319 5.0 15.0 0.00 0.00 0.00 33 1011.3
20260504183033 72 219 5.0 15.0 0.00 0.00 0.00 31 1011.3
20260504182519 72 269 3.0 12.0 0.00 0.00 0.00 35 1011.6
20260504182018 71 213 4.0 12.0 0.00 0.00 0.00 32 1011.5
20260504181536 71 202 4.0 14.0 0.00 0.00 0.00 33 1011.4
20260504181021 71 314 7.0 14.0 0.00 0.00 0.00 31 1011.5
20260504180519 71 293 4.0 13.0 0.00 0.00 0.00 32 1011.6
20260504180035 71 200 5.0 13.0 0.00 0.00 0.00 34 1011.7
20260504175518 71 316 6.0 13.0 0.00 0.00 0.00 33 1011.9
20260504175022 71 232 5.0 12.0 0.00 0.00 0.00 32 1011.9
20260504174535 71 252 6.0 12.0 0.00 0.00 0.00 33 1011.9
20260504174018 70 303 5.0 13.0 0.00 0.00 0.00 34 1012.0
20260504173517 70 325 6.0 14.0 0.00 0.00 0.00 32 1012.1
20260504173034 70 343 6.0 15.0 0.00 0.00 0.00 34 1012.2
20260504172517 70 222 4.0 18.0 0.00 0.00 0.00 34 1012.2
20260504172017 69 0 6.0 18.0 0.00 0.00 0.00 33 1012.3
20260504171545 69 272 9.0 17.0 0.00 0.00 0.00 34 1012.4
20260504171018 69 191 4.0 12.0 0.00 0.00 0.00 34 1012.4
20260504170518 69 308 6.0 12.0 0.00 0.00 0.00 34 1012.6
20260504151017 66 262 7.0 14.0 0.00 0.00 0.00 37 1013.8
20260504150518 65 317 4.0 14.0 0.00 0.00 0.00 38 1013.9
20260504141017 62 209 3.0 10.0 0.00 0.00 0.00 49 1014.0
20260504140520 62 234 3.0 10.0 0.00 0.00 0.00 49 1014.0
20260504130517 58 207 5.0 13.0 0.00 0.00 0.00 60 1014.2
20260504110517 49 215 4.0 11.0 0.00 0.00 0.00 71 1014.9